This is the latest recevied weather packets stored in our database for station/object WE3WEE. If no packets are shown the sender has not sent any weather packets the latest 10 day(s).
| Time | Temp. | Humidity | Pressure | Rain* | Wind** | Luminosity | Snow |
|---|---|---|---|---|---|---|---|
| 1777857243 | 9.44° C | 57% | 1012.8 hPa | 0 mm | - | - | - |
| 1777856939 | 9.44° C | 56% | 1012.8 hPa | 0 mm | - | - | - |
| 1777856635 | 9.44° C | 55% | 1012.8 hPa | 0 mm | - | - | - |
| 1777856331 | 8.89° C | 55% | 1012.8 hPa | 0 mm | - | - | - |
| 1777856028 | 8.89° C | 57% | 1012.8 hPa | 0 mm | - | - | - |
| 1777855726 | 8.89° C | 58% | 1012.8 hPa | 0 mm | - | - | - |
| 1777855423 | 9.44° C | 57% | 1012.8 hPa | 0 mm | - | - | - |
| 1777855120 | 10° C | 57% | 1011.7 hPa | 0 mm | - | - | - |
| 1777854817 | 10° C | 53% | 1011.7 hPa | 0 mm | - | - | - |
| 1777854513 | 10° C | 51% | 1011.7 hPa | 0 mm | - | - | - |
| 1777854210 | 10° C | 51% | 1011.7 hPa | 0 mm | - | - | - |
| 1777853908 | 10.56° C | 52% | 1011.7 hPa | 0 mm | - | - | - |
| 1777853605 | 10.56° C | 52% | 1011.7 hPa | 0 mm | - | - | - |
| 1777853302 | 11.11° C | 51% | 1011.7 hPa | 0 mm | - | - | - |
| 1777852999 | 11.11° C | 51% | 1011.7 hPa | 0 mm | - | - | - |
| 1777852696 | 11.67° C | 49% | 1011.7 hPa | 0 mm | - | - | - |
| 1777852394 | 12.22° C | 48% | 1011.7 hPa | 0 mm | - | - | - |
| 1777852091 | 12.22° C | 47% | 1011.7 hPa | 0 mm | - | - | - |
| 1777851789 | 12.22° C | 44% | 1011.7 hPa | 0 mm | - | - | - |
| 1777851486 | 12.78° C | 46% | 1011.7 hPa | 0 mm | - | - | - |
| 1777851182 | 12.78° C | 45% | 1011.7 hPa | 0 mm | - | - | - |
| 1777850878 | 12.78° C | 43% | 1011.7 hPa | 0 mm | - | - | - |
| 1777850576 | 13.33° C | 46% | 1011.7 hPa | 0 mm | - | - | - |
| 1777850273 | 13.33° C | 42% | 1011.7 hPa | 0 mm | - | - | - |
| 1777849965 | 13.33° C | 42% | 1011.7 hPa | 0 mm | - | - | - |
* Rain latest hour (hover to see other rain measurements)
** Current wind speed in m/s (hover to see current wind gust speed)